Date String (YYYY-MM-DD hh:mm:ss) UTC,Instrument flags,absolute air pressure of the measurement (hPa),sample flow rate (lpm),inlet stack bypass flow (lpm),air temperature of the measurement (°C),ambient temperature measured by the external sensor (°C),aerosol sample conditioner tube jacket temperature (°C),OPC LED temperature (°C),internal box temperature (°C),relative humidity of the measurement (%),span deviation,mass concentration of particles derived from Lorenz-Mie calculation of OPC scattering (μg/m³),mass concentration of particles derived from Lorenz-Mie calculation of OPC scattering (μg/m³),mass concentration of particles derived from Lorenz-Mie calculation of OPC scattering (μg/m³)
DateTimeUTC,F1_M11,P_M11,Q1_M11,Q2_M11,T1_M11,T2_M11,T3_M11,T4_M11,T5_M11,U1_M11,ZSPAN_M11,X0_M11,X2_M11,X1_M11
2023-12-31 00:00:00,SystemResetWarning,0829.3,5.00,000.00,026.2,025.1,000.0,034.3,027.6,8.0,0000.0,0010.64,0004.47,0004.11
2023-12-31 00:01:00,SystemResetWarning,0829.3,5.01,000.00,026.2,025.1,000.0,034.3,027.6,8.0,0000.0,0010.56,0004.44,0004.10
2023-12-31 00:02:00,SystemResetWarning,0829.3,5.00,000.00,026.2,025.1,000.0,034.3,027.7,8.0,0000.0,0009.38,0004.45,0004.09
2023-12-31 00:03:00,SystemResetWarning,0829.3,4.99,000.00,026.2,025.1,000.0,034.3,027.7,7.9,0000.0,0009.05,0004.45,0004.09
2023-12-31 00:04:00,SystemResetWarning,0829.3,5.01,000.00,026.2,025.2,000.0,034.4,027.7,7.9,0000.0,0009.00,0004.44,0004.09
2023-12-31 00:05:00,SystemResetWarning,0829.3,5.00,000.00,026.2,025.2,000.0,034.4,027.7,7.9,0000.0,0008.44,0004.44,0004.08
2023-12-31 00:06:00,SystemResetWarning,0829.4,4.99,000.00,026.3,025.2,000.0,034.4,027.7,7.9,0000.0,0008.92,0004.43,0004.08
2023-12-31 00:07:00,SystemResetWarning,0829.4,5.01,000.00,026.3,025.2,000.0,034.4,027.7,7.9,0000.0,0008.83,0004.45,0004.08
2023-12-31 00:08:00,SystemResetWarning,0829.4,5.00,000.00,026.3,025.2,000.0,034.4,027.7,8.1,0000.0,0008.44,0004.48,0004.08
2023-12-31 00:09:00,SystemResetWarning,0829.3,4.99,000.00,026.3,025.2,000.0,034.4,027.7,8.1,0000.0,0008.57,0004.48,0004.09
2023-12-31 00:10:00,SystemResetWarning,0829.4,4.99,000.00,026.3,025.2,000.0,034.4,027.7,8.1,0000.0,0008.98,0004.46,0004.09
2023-12-31 00:11:00,SystemResetWarning,0829.4,5.00,000.00,026.3,025.2,000.0,034.5,027.7,8.1,0000.0,0008.89,0004.44,0004.09
2023-12-31 00:12:00,SystemResetWarning,0829.4,5.01,000.00,026.3,025.2,000.0,034.5,027.7,8.1,0000.0,0008.92,0004.45,0004.11
2023-12-31 00:13:00,SystemResetWarning,0829.3,5.01,000.00,026.3,025.2,000.0,034.5,027.7,8.0,0000.0,0008.97,0004.44,0004.12
2023-12-31 00:14:00,SystemResetWarning,0829.3,4.99,000.00,026.3,025.2,000.0,034.5,027.7,8.0,0000.0,0008.72,0004.44,0004.13
2023-12-31 00:15:00,SystemResetWarning,0829.4,4.99,000.00,026.3,025.2,000.0,034.5,027.7,8.0,0000.0,0008.69,0004.44,0004.13
2023-12-31 00:16:00,SystemResetWarning,0829.3,5.01,000.00,026.3,025.2,000.0,034.5,027.7,8.0,0000.0,0008.75,0004.45,0004.14
2023-12-31 00:17:00,SystemResetWarning,0829.3,5.01,000.00,026.3,025.2,000.0,034.5,027.7,8.0,0000.0,0008.32,0004.47,0004.15
2023-12-31 00:18:00,SystemResetWarning,0829.4,5.00,000.00,026.3,025.2,000.0,034.5,027.7,8.0,0000.0,0008.21,0004.47,0004.14
2023-12-31 00:19:00,SystemResetWarning,0829.4,5.00,000.00,026.3,025.2,000.0,034.5,027.7,8.0,0000.0,0008.16,0004.46,0004.13
2023-12-31 00:20:00,SystemResetWarning,0829.4,5.00,000.00,026.3,025.2,000.0,034.5,027.7,8.0,0000.0,0008.01,0004.46,0004.12
2023-12-31 00:21:00,SystemResetWarning,0829.4,5.00,000.00,026.4,025.2,000.0,034.5,027.7,7.9,0000.0,0007.58,0004.46,0004.11
2023-12-31 00:22:00,SystemResetWarning,0829.4,5.00,000.00,026.4,025.2,000.0,034.5,027.8,7.9,0000.0,0007.48,0004.45,0004.10
2023-12-31 00:23:00,SystemResetWarning,0829.4,5.00,000.00,026.4,025.2,000.0,034.6,027.7,7.9,0000.0,0007.40,0004.44,0004.07
2023-12-31 00:24:00,SystemResetWarning,0829.4,5.01,000.00,026.4,025.2,000.0,034.6,027.7,7.9,0000.0,0007.43,0004.44,0004.06
2023-12-31 00:25:00,SystemResetWarning,0829.5,5.00,000.00,026.3,025.2,000.0,034.6,027.7,7.9,0000.0,0007.46,0004.46,0004.05
2023-12-31 00:26:00,SystemResetWarning,0829.5,5.01,000.00,026.4,025.2,000.0,034.6,027.7,7.9,0000.0,0007.43,0004.45,0004.03
2023-12-31 00:27:00,SystemResetWarning,0829.5,5.00,000.00,026.4,025.2,000.0,034.6,027.7,7.9,0000.0,0007.83,0004.46,0004.02
2023-12-31 00:28:00,SystemResetWarning,0829.5,5.00,000.00,026.4,025.2,000.0,034.6,027.7,8.0,0000.0,0008.17,0004.44,0004.00
2023-12-31 00:29:00,SystemResetWarning,0829.5,5.00,000.00,026.4,025.2,000.0,034.6,027.7,8.0,0000.0,0009.63,0004.44,0003.99
2023-12-31 00:30:00,SystemResetWarning,0829.5,5.00,000.00,026.4,025.2,000.0,034.6,027.7,7.9,0000.0,0009.80,0004.44,0004.00
2023-12-31 00:31:00,SystemResetWarning,0829.6,5.00,000.00,026.4,025.2,000.0,034.6,027.7,7.8,0000.0,0010.31,0004.48,0004.02
2023-12-31 00:32:00,SystemResetWarning,0829.6,5.00,000.00,026.4,025.2,000.0,034.6,027.7,7.8,0000.0,0010.37,0004.48,0004.03
2023-12-31 00:33:00,SystemResetWarning,0829.6,5.00,000.00,026.4,025.2,000.0,034.6,027.7,7.7,0000.0,0010.73,0004.48,0004.03
2023-12-31 00:34:00,SystemResetWarning,0829.6,5.00,000.00,026.4,025.2,000.0,034.6,027.7,7.8,0000.0,0011.40,0004.47,0004.05
2023-12-31 00:35:00,SystemResetWarning,0829.6,4.99,000.00,026.4,025.2,000.0,034.6,027.7,7.8,0000.0,0012.04,0004.49,0004.05
2023-12-31 00:36:00,SystemResetWarning,0829.6,5.00,000.00,026.4,025.1,000.0,034.6,027.7,7.8,0000.0,0012.07,0004.49,0004.05
2023-12-31 00:37:00,SystemResetWarning,0829.7,5.00,000.00,026.4,025.1,000.0,034.6,027.7,7.9,0000.0,0012.29,0004.51,0004.06
2023-12-31 00:38:00,SystemResetWarning,0829.6,5.00,000.00,026.4,025.1,000.0,034.6,027.7,7.9,0000.0,0012.21,0004.49,0004.06
2023-12-31 00:39:00,SystemResetWarning,0829.6,5.02,000.00,026.3,025.1,000.0,034.6,027.7,8.0,0000.0,0011.78,0004.51,0004.07
2023-12-31 00:40:00,SystemResetWarning,0829.6,5.00,000.00,026.3,025.1,000.0,034.6,027.7,8.0,0000.0,0010.38,0004.52,0004.08
2023-12-31 00:41:00,SystemResetWarning,0829.7,4.99,000.00,026.3,025.1,000.0,034.6,027.7,8.0,0000.0,0010.24,0004.56,0004.09
2023-12-31 00:42:00,SystemResetWarning,0829.7,5.02,000.00,026.3,025.1,000.0,034.6,027.7,8.0,0000.0,0009.95,0004.58,0004.10
2023-12-31 00:43:00,SystemResetWarning,0829.7,5.00,000.00,026.3,025.0,000.0,034.6,027.7,8.0,0000.0,0010.13,0004.65,0004.12
2023-12-31 00:44:00,SystemResetWarning,0829.7,4.99,000.00,026.3,025.0,000.0,034.6,027.7,8.0,0000.0,0010.75,0004.72,0004.15
2023-12-31 00:45:00,SystemResetWarning,0829.7,5.00,000.00,026.3,025.0,000.0,034.6,027.7,7.9,0000.0,0010.23,0004.78,0004.17
2023-12-31 00:46:00,SystemResetWarning,0829.7,4.99,000.00,026.3,025.0,000.0,034.6,027.7,7.8,0000.0,0010.36,0004.76,0004.20
2023-12-31 00:47:00,SystemResetWarning,0829.7,5.00,000.00,026.3,025.0,000.0,034.6,027.7,7.8,0000.0,0010.42,0004.79,0004.22
2023-12-31 00:48:00,SystemResetWarning,0829.7,5.02,000.00,026.3,025.0,000.0,034.6,027.7,7.8,0000.0,0010.35,0004.82,0004.24
2023-12-31 00:49:00,SystemResetWarning,0829.7,5.01,000.00,026.3,025.0,000.0,034.6,027.7,7.8,0000.0,0010.09,0004.82,0004.25
2023-12-31 00:50:00,SystemResetWarning,0829.7,4.99,000.00,026.3,025.0,000.0,034.6,027.7,7.8,0000.0,0010.38,0004.82,0004.25
2023-12-31 00:51:00,SystemResetWarning,0829.7,4.99,000.00,026.3,025.0,000.0,034.6,027.7,7.8,0000.0,0010.38,0004.80,0004.28
2023-12-31 00:52:00,SystemResetWarning,0829.7,5.00,000.00,026.3,025.1,000.0,034.6,027.7,7.8,0000.0,0010.63,0004.76,0004.29
2023-12-31 00:53:00,SystemResetWarning,0829.7,5.01,000.00,026.3,025.1,000.0,034.6,027.6,7.8,0000.0,0010.57,0004.74,0004.28
2023-12-31 00:54:00,SystemResetWarning,0829.7,5.01,000.00,026.3,025.1,000.0,034.6,027.7,7.9,0000.0,0010.86,0004.71,0004.28
2023-12-31 00:55:00,SystemResetWarning,0829.7,5.00,000.00,026.3,025.1,000.0,034.6,027.6,8.0,0000.0,0010.76,0004.73,0004.28
2023-12-31 00:56:00,SystemResetWarning,0829.7,4.99,000.00,026.3,025.0,000.0,034.6,027.6,8.1,0000.0,0010.93,0004.74,0004.30
2023-12-31 00:57:00,SystemResetWarning,0829.8,4.99,000.00,026.3,025.0,000.0,034.6,027.6,8.0,0000.0,0011.31,0004.76,0004.32
2023-12-31 00:58:00,SystemResetWarning,0829.8,5.01,000.00,026.2,025.0,000.0,034.6,027.6,8.0,0000.0,0011.73,0004.78,0004.33
2023-12-31 00:59:00,SystemResetWarning,0829.8,5.00,000.00,026.2,025.0,000.0,034.6,027.6,8.1,0000.0,0012.43,0004.79,0004.36
